Regional Weather Roundup
Issued by NWS Northern Indiana

Home | Current Version | Previous Version | Graphics & Text | Print | Product List | Glossary On
Versions: 1 2 3 4 5 6 7 8 9 10 11 12 13 14 15 16 17 18 19 20 21 22 23 24 25 26 27 28 29 30 31 32 33 34 35 36 37 38 39 40 41 42 43 44 45 46 47 48 49 50
000
ASUS43 KIWX 201800
RWRIWX

KIWX WEATHER ROUNDUP
NATIONAL WEATHER SERVICE NORTHERN INDIANA
200 PM EDT SUN MAY 20 2018

NOTE: "FAIR" INDICATES FEW OR NO CLOUDS BELOW 12,000 FEET WITH NO
SIGNIFICANT WEATHER AND/OR OBSTRUCTIONS TO VISIBILITY.

* THESE STATIONS ARE NOT UNDER NWS QUALITY CONTROL. THEY ALSO MAY NOT
  REPORT WEATHER SUCH AS PRECIPITATION OR FOG.

INZ001>027-201900-
NORTHERN INDIANA

CITY           SKY/WX    TMP DP  RH WIND       PRES   REMARKS
SOUTH BEND     CLOUDY    58  56  93 NW9       30.20R FOG
6HR MIN TEMP:  54; 6HR MAX TEMP:  59; 6HR PCP:  0.07;

GOSHEN         CLOUDY    65  60  84 NE7       30.17R
6HR MIN TEMP:  57; 6HR MAX TEMP:  65; 6HR PCP:  0.02;

FORT WAYNE     CLOUDY    72  61  68 NW5       30.16R
6HR MIN TEMP:  60; 6HR MAX TEMP:  72;

PERU/GRISSOM   PTSUNNY   69  66  92 NE9       30.10F
6HR MIN TEMP:  58; 6HR MAX TEMP:  69; 6HR PCP: TRACE;


$$
INZ028>050-201900-
CENTRAL INDIANA

CITY           SKY/WX    TMP DP  RH WIND       PRES   REMARKS
LAFAYETTE      FAIR      73  65  75 NE7       30.10R
6HR MIN TEMP:  62; 6HR MAX TEMP:  73;

KOKOMO*        FAIR      69  63  81 E10       30.11F
6HR MIN TEMP:  59; 6HR MAX TEMP:  69;

MUNCIE*        FAIR      76  64  66 E7        30.11F
6HR MIN TEMP:  62; 6HR MAX TEMP:  77;

INDIANAPOLIS   FAIR      81  65  58 CALM      30.08F
6HR MIN TEMP:  66; 6HR MAX TEMP:  82;


$$
MIZ043>046-050>051-056>058-064>065-071>073-077>080-201900-
SOUTHWEST LOWER MICHIGAN

CITY           SKY/WX    TMP DP  RH WIND       PRES   REMARKS
BATTLE CREEK   CLOUDY    60  54  80 NE6       30.19S
6HR MIN TEMP:  58; 6HR MAX TEMP:  61; 6HR PCP: TRACE;

BENTON HARBOR  CLOUDY    52  48  86 VRB3      30.21R
6HR MIN TEMP:  51; 6HR MAX TEMP:  57;

COLDWATER*     CLOUDY    61  57  85 CALM      30.17S
6HR MIN TEMP:  57; 6HR MAX TEMP:  63;

HILLSDALE*     CLOUDY    61  55  82 NE5       30.17R
HOLLAND        CLOUDY    56  49  77 CALM      30.21S
6HR MIN TEMP:  53; 6HR MAX TEMP:  56; 6HR PCP:  0.04;

GRAND RAPIDS   CLOUDY    57  50  77 CALM      30.21R
6HR MIN TEMP:  52; 6HR MAX TEMP:  58; 6HR PCP: TRACE;

KALAMAZOO      LGT RAIN  63  55  75 CALM      30.20R
6HR MIN TEMP:  59; 6HR MAX TEMP:  65; 6HR PCP: TRACE;

STURGIS*       LGT RAIN  61  58  90 NW3       30.19R
6HR MIN TEMP:  57; 6HR MAX TEMP:  62; 6HR PCP:  0.01;

THREE RIVERS*  LGT RAIN  62  56  83 CALM      30.19R
6HR MIN TEMP:  57; 6HR MAX TEMP:  62;


$$
OHZ001>008-015>018-024>025-201900-
NORTHWEST OHIO

CITY           SKY/WX    TMP DP  RH WIND       PRES   REMARKS
DEFIANCE       CLOUDY    69  60  73 N5        30.16R
6HR MIN TEMP:  60; 6HR MAX TEMP:  69;

FINDLAY        PTSUNNY   72  61  68 VRB5      30.13F
6HR MIN TEMP:  62; 6HR MAX TEMP:  72;

TOLEDO EXPRESS CLOUDY    66  61  84 NE10      30.15F
6HR MIN TEMP:  61; 6HR MAX TEMP:  67;

TOLEDO METCALF CLOUDY    64  57  78 E8        30.18R
6HR MIN TEMP:  61; 6HR MAX TEMP:  65;

LIMA           FAIR      72  60  66 NE6       30.14S
6HR MIN TEMP:  60; 6HR MAX TEMP:  73;


$$
AND FOR LAKE MICHIGAN COASTAL AND OPEN LAKE BUOY OBSERVATIONS

STATION/POSITION TEMP    WIND        PRES    VSBY  WAVE
                 AIR SEA DIR/SP/G                  HT/PER
                 (F)     (DEG/KT/KT) (MB)    (MI)  (FT/S)
CALUMET HARBOR    44     340/ 12/ 14 1023.2R
BURNS HARBOR      45      20/ 13/ 14 1023.7S
SAINT JOSEPH      49      20/  8/ 13 1023.7
4 MI NW BRIDGMAN  50 53   30/ 14/ 16 1023.5R         4/ 5
MICHIGAN CITY     44 52   30/ 10/ 14   N/A           5/ 6

$$
&&




USA.gov is the U.S. government's official web portal to all federal, state and local government web resources and services.